Tracking 31027 objects as of 19-Jul-2025
HD Live streaming from Space Station
objects crossing your sky now

BREEZE-M R/B

Track BREEZE-M R/B now!
10-day predictions


NORAD ID: 28944
Int'l Code: 2006-006B
Perigee: 1,105.8 km
Apogee: 14,766.4 km
Inclination: 50.7 °
Period: 283.8 minutes
Semi major axis: 14307 km
RCS: 13.6373 m2 (large)
Launch date: February 28, 2006
Source: Commonwealth of Independent States (former USSR) (CIS)
Launch site: TYURATAM MISSILE AND SPACE COMPLEX (TTMTR)

Note: This is a ROCKET BODY
Your satellite tracking list
STARLINK-2062
Track 1 satellite(s)




NASA's NSSDC Master Catalog

Two Line Element Set (TLE):
1 28944U 06006B   25199.25138108 -.00000059  00000-0  00000-0 0  9998
2 28944  50.7317 296.3100 4774079 322.1777  17.0410  5.07312930340954
Source of the keplerian elements: AFSPC